Location: Strawberry
(45.6646°N, 111.9596°W)
Time: 23:55:30
(UTC+00:00)

Courier 1B Rocket - Pass Details

Date: 10 October 2022
Orbit: 920 x 1202 km, 28.3° (Epoch: 03 December)

Event Time Altitude Azimuth Distance (km) Brightness Sun altitude
Rises 23:04:08 0° 219° (SW) 4,029 9.5 16.7°
Reaches altitude 10° 23:08:28 10° 198° (SSW) 3,022 8.4 16.1°
Maximum altitude 23:12:18 15° 167° (SSE) 2,625 7.5 15.5°
Drops below altitude 10° 23:16:01 10° 135° (SE) 2,921 7.4 14.9°
Sets 23:20:04 0° 113° (ESE) 3,814 7.7 14.3°
